Wind_Speed
14 13 13 14 14 14 14 15 15 14 13 14 13 13 13 12 12 12 11 10 10 10 10 9 9 10 10 10 10 11 11 11 12 12 13 13 13 13
14 14 14 14 14 15 15 15 15 14 14 14 14 14 13 12 12 12 11 11 11 11 11 10 10 11 11 11 11 11 11 11 12 12 13 13 13 13
16 15 15 15 15 14 15 15 15 15 14 14 14 14 14 12 13 12 12 12 11 11 11 11 11 11 11 11 11 11 11 12 12 12 13 13 14 13
17 16 16 16 16 16 16 16 16 16 15 14 15 14 14 13 13 13 12 12 12 11 11 11 11 12 12 12 11 12 12 12 12 13 13 13 13 13
17 17 16 16 16 17 17 17 17 17 16 15 15 15 15 15 14 13 13 13 12 11 12 12 12 12 12 12 12 13 13 13 13 14 14 13 13 13
18 18 17 16 16 16 17 17 17 17 17 16 16 16 17 16 15 14 14 13 12 13 13 13 13 13 13 13 13 13 13 14 14 14 14 14 14 15
19 19 19 18 17 17 17 18 18 18 18 17 17 17 18 18 17 16 15 14 14 14 14 14 14 14 13 14 14 14 14 14 14 15 15 16 16 17
19 20 20 20 19 19 19 19 19 19 19 19 18 19 19 19 18 17 16 16 15 16 15 15 15 14 15 16 15 15 15 15 15 16 16 17 18 18
20 21 21 21 21 21 20 20 20 20 19 18 19 19 19 19 19 19 18 17 16 16 16 16 15 15 15 15 15 15 16 16 16 17 17 18 19 19
21 22 22 22 22 22 21 21 21 21 21 20 20 19 20 20 19 19 19 18 17 17 18 17 17 17 17 17 17 17 17 17 18 18 18 19 19 19
22 22 23 22 23 23 22 22 21 22 22 22 21 21 20 21 21 20 20 20 19 19 20 19 19 19 19 19 19 19 19 19 19 20 20 20 20 20
23 23 23 24 24 24 23 23 23 23 23 23 23 22 22 21 22 22 21 21 21 20 20 20 20 20 20 20 21 21 21 21 21 21 21 21 21 21
25 25 25 25 25 25 24 24 23 23 23 23 23 23 23 23 23 23 23 22 22 22 23 23 22 22 22 22 22 23 23 23 23 22 22 22 22 22
26 26 26 26 26 26 25 25 25 25 24 24 24 24 24 24 25 24 24 24 24 24 24 25 25 24 24 24 24 24 24 24 24 24 23 23 24 24
28 27 27 27 27 27 27 27 26 26 26 26 26 26 26 26 26 26 26 26 25 25 26 26 26 27 26 25 24 25 25 25 25 25 25 25 25 25
28 28 28 28 28 28 28 28 27 27 27 27 28 28 28 29 29 28 28 28 27 26 27 27 27 27 26 26 26 26 26 26 26 26 26 26 26 26
30 29 29 29 29 29 28 28 28 28 28 28 28 28 29 30 30 30 29 29 29 28 27 28 28 27 27 28 28 28 28 27 27 27 27 26 27 27
30 30 30 30 30 30 30 29 30 29 29 28 28 28 29 29 30 30 30 30 30 29 28 28 29 29 29 29 29 29 29 28 28 28 28 28 28 28
30 30 30 30 30 30 30 30 30 30 30 30 30 30 29 29 29 30 30 30 30 30 29 30 30 30 30 30 30 30 29 28 29 29 29 28 28 28
30 30 30 30 30 31 31 31 31 31 31 31 31 31 31 31 31 31 31 31 30 31 31 31 32 31 31 30 30 31 31 30 30 30 30 30 29 29
30 30 30 31 31 32 32 32 32 31 31 32 32 32 32 32 32 32 32 33 33 32 32 32 32 32 32 31 30 30 30 31 31 31 31 31 31 31
29 30 30 30 31 31 32 32 31 31 32 32 32 33 33 33 33 33 34 34 34 34 34 34 34 34 34 32 32 32 32 32 31 31 31 32 31 31
29 29 30 31 31 31 31 31 31 32 32 32 33 33 33 33 33 33 33 34 34 34 34 34 34 34 33 33 33 33 33 33 33 32 32 32 31 31
Wind_Direction
263 262 260 259 259 258 257 255 253 252 254 255 253 257 260 260 260 260 262 263 267 272 273 274 272 271 273 273 272 269 269 270 272 274 276 278 281 284
263 260 258 258 259 259 256 255 254 252 254 256 254 254 256 258 260 260 262 263 267 274 274 271 272 273 273 274 274 272 273 274 274 276 278 281 283 284
264 260 258 257 258 258 256 256 256 253 253 256 257 255 255 255 257 260 262 264 268 272 271 270 273 274 274 276 275 274 276 276 276 278 281 283 285 285
265 263 259 256 258 257 257 257 254 251 252 253 253 252 252 254 256 256 260 264 269 269 273 275 275 276 278 277 276 275 277 279 279 281 281 282 283 284
263 263 260 256 255 254 254 255 254 251 251 251 251 250 251 253 255 256 259 265 265 267 273 277 277 276 278 277 277 276 276 279 281 282 281 283 285 285
262 258 257 257 255 254 253 253 252 251 250 250 250 249 251 252 254 257 259 262 264 265 270 275 278 278 277 277 277 277 278 280 282 281 281 283 286 287
259 254 252 252 254 254 254 255 253 251 251 252 252 250 252 254 256 257 256 261 265 266 267 273 275 276 276 277 276 275 277 278 280 280 280 283 285 286
258 253 251 252 253 253 254 255 254 251 251 253 253 253 252 255 256 256 257 261 265 267 267 270 273 274 274 275 276 275 275 275 277 279 280 282 285 286
257 254 252 252 252 253 256 257 255 253 253 254 254 252 252 253 255 255 256 259 262 265 266 267 270 272 273 275 275 276 277 277 278 281 282 283 284 285
258 256 254 252 250 252 254 255 256 254 253 254 253 254 253 253 255 257 258 260 262 264 266 268 269 269 270 272 274 276 278 279 279 281 282 283 283 283
257 256 255 253 252 252 253 253 254 255 254 252 252 253 254 254 255 257 259 262 264 265 266 267 269 269 270 271 273 276 278 279 280 280 281 282 282 283
256 257 256 254 253 252 252 252 253 254 253 252 251 252 253 256 257 258 260 261 263 265 265 267 267 268 269 272 272 274 276 278 279 280 281 281 281 281
259 257 257 255 253 251 251 253 255 255 254 252 253 253 254 255 257 259 261 263 264 265 266 267 267 268 269 271 272 272 274 276 278 280 280 279 279 279
259 257 255 253 251 251 252 253 255 256 254 254 254 255 256 256 257 259 262 264 266 267 267 268 268 268 270 271 272 272 274 275 276 277 278 279 278 278
258 257 254 253 252 252 253 254 255 256 254 254 255 256 257 257 258 260 262 264 266 266 267 268 269 269 271 271 271 273 275 277 277 276 277 279 278 278
254 254 252 252 253 254 255 256 256 257 257 256 256 256 257 257 258 260 262 264 265 266 268 269 270 271 271 272 272 273 274 275 277 277 277 277 276 276
253 253 253 252 253 255 256 257 257 257 258 259 259 258 258 258 258 260 262 264 265 266 268 269 269 271 271 272 272 272 273 274 275 276 277 277 277 277
252 252 252 253 254 254 255 256 256 256 256 257 258 258 258 258 259 260 262 263 265 266 267 269 269 270 272 272 273 271 271 273 274 275 278 277 277 278
251 251 251 252 254 254 255 255 255 255 256 257 257 257 258 259 261 262 264 264 265 266 267 269 270 271 271 271 271 270 271 272 272 274 275 275 275 276
252 252 253 254 254 255 255 256 256 255 256 257 257 258 258 260 261 262 263 264 266 267 267 269 270 270 271 269 269 269 270 270 270 272 272 272 273 274
253 253 254 255 255 256 256 256 257 255 256 257 258 259 260 261 261 262 262 263 265 267 269 269 269 270 271 271 270 269 269 270 270 270 271 270 271 273
254 254 255 256 257 258 257 257 257 257 256 257 258 260 261 261 262 262 263 264 266 268 269 268 268 270 271 271 270 269 269 270 271 271 271 272 273 273
256 255 256 257 258 257 256 256 257 257 257 258 259 260 261 262 262 263 264 265 267 268 268 268 268 268 268 268 268 269 268 269 270 271 272 273 274 274
Height
5837 5837 5837 5838 5838 5838 5839 5840 5840 5841 5841 5841 5841 5841 5841 5841 5841 5841 5840 5840 5840 5839 5839 5838 5837 5836 5836 5835 5835 5834 5834 5833 5833 5832 5832 5831 5830 5829
5833 5833 5833 5833 5834 5834 5834 5835 5836 5837 5837 5837 5837 5838 5838 5838 5838 5838 5838 5837 5837 5836 5836 5835 5834 5834 5833 5832 5832 5831 5830 5830 5829 5829 5828 5827 5827 5825
5828 5828 5829 5829 5829 5830 5830 5831 5832 5832 5833 5834 5834 5834 5834 5835 5835 5835 5834 5834 5834 5833 5832 5832 5831 5831 5830 5829 5829 5828 5827 5826 5826 5825 5825 5824 5823 5822
5824 5824 5824 5824 5825 5825 5826 5827 5827 5828 5829 5830 5830 5830 5831 5831 5831 5831 5831 5831 5830 5830 5829 5828 5828 5827 5827 5826 5825 5825 5824 5823 5823 5822 5821 5820 5819 5818
5818 5819 5819 5820 5820 5821 5821 5822 5823 5824 5825 5826 5826 5826 5827 5827 5827 5827 5827 5827 5826 5826 5826 5825 5825 5824 5823 5822 5822 5821 5820 5820 5819 5818 5817 5816 5815 5814
5812 5813 5814 5815 5816 5816 5817 5817 5818 5819 5820 5821 5822 5822 5823 5823 5823 5823 5823 5823 5823 5823 5822 5822 5821 5820 5820 5819 5818 5817 5817 5816 5815 5814 5813 5812 5811 5810
5806 5807 5808 5809 5810 5811 5812 5813 5813 5814 5815 5816 5817 5818 5818 5818 5819 5819 5819 5819 5819 5818 5818 5818 5817 5816 5816 5815 5814 5813 5812 5811 5811 5810 5809 5808 5807 5806
5801 5802 5803 5804 5805 5806 5806 5807 5808 5808 5809 5810 5811 5812 5813 5813 5814 5814 5815 5815 5815 5815 5814 5813 5813 5812 5812 5811 5809 5809 5808 5807 5806 5805 5804 5803 5802 5801
5795 5796 5797 5798 5799 5800 5800 5801 5802 5803 5804 5805 5806 5806 5807 5808 5808 5809 5809 5810 5810 5809 5809 5809 5808 5808 5807 5806 5805 5804 5803 5802 5801 5800 5799 5798 5797 5795
5789 5790 5791 5791 5792 5793 5794 5795 5796 5797 5798 5799 5800 5801 5802 5802 5803 5803 5803 5804 5804 5804 5804 5804 5803 5803 5802 5801 5800 5800 5799 5797 5796 5795 5794 5793 5791 5790
5782 5783 5784 5785 5786 5787 5788 5789 5789 5790 5791 5792 5794 5795 5796 5796 5797 5797 5798 5798 5798 5798 5798 5798 5798 5797 5797 5796 5795 5794 5793 5792 5791 5790 5788 5787 5785 5784
5774 5775 5776 5777 5778 5779 5781 5782 5783 5784 5785 5786 5787 5788 5789 5790 5791 5791 5791 5792 5792 5792 5791 5791 5791 5791 5791 5790 5789 5789 5788 5787 5785 5784 5782 5781 5779 5778
5767 5767 5768 5770 5771 5772 5773 5775 5776 5776 5777 5778 5780 5781 5782 5783 5784 5784 5785 5785 5785 5785 5785 5784 5784 5784 5784 5784 5783 5782 5781 5780 5779 5777 5776 5774 5773 5771
5758 5759 5760 5761 5763 5764 5766 5767 5768 5769 5771 5772 5773 5774 5775 5776 5777 5777 5777 5778 5778 5778 5777 5777 5777 5777 5777 5776 5776 5774 5773 5772 5771 5770 5768 5767 5766 5765
5750 5751 5752 5753 5755 5756 5757 5759 5760 5761 5763 5764 5765 5767 5767 5768 5769 5769 5770 5770 5770 5770 5770 5769 5769 5769 5769 5768 5768 5767 5766 5765 5763 5762 5761 5760 5759 5758
5741 5742 5744 5745 5746 5748 5749 5750 5752 5753 5754 5756 5757 5758 5758 5759 5760 5761 5762 5762 5763 5763 5762 5761 5761 5761 5761 5760 5760 5759 5758 5757 5756 5755 5754 5752 5751 5749
5732 5733 5735 5737 5738 5739 5741 5742 5743 5744 5746 5747 5748 5749 5750 5751 5752 5752 5753 5754 5754 5754 5754 5753 5752 5752 5752 5752 5751 5751 5749 5749 5748 5747 5746 5745 5743 5742
5722 5724 5726 5728 5729 5730 5732 5733 5734 5735 5737 5738 5739 5740 5741 5742 5742 5743 5744 5744 5745 5745 5745 5744 5744 5743 5743 5743 5742 5741 5741 5740 5739 5738 5737 5736 5735 5734
5713 5714 5716 5718 5719 5721 5722 5724 5725 5726 5727 5728 5730 5731 5732 5733 5733 5734 5734 5734 5735 5735 5735 5735 5735 5734 5734 5733 5732 5731 5731 5730 5730 5729 5728 5727 5727 5726
5703 5705 5707 5709 5710 5711 5712 5714 5715 5716 5717 5719 5720 5721 5722 5723 5724 5724 5725 5725 5725 5725 5725 5725 5725 5724 5724 5723 5723 5722 5721 5720 5720 5719 5718 5718 5717 5716
5694 5695 5697 5699 5700 5701 5702 5703 5705 5706 5707 5708 5710 5711 5711 5712 5713 5714 5714 5715 5715 5715 5715 5715 5714 5714 5713 5713 5713 5712 5711 5710 5709 5708 5708 5707 5707 5706
5684 5685 5687 5688 5689 5691 5692 5693 5694 5696 5697 5698 5699 5700 5701 5701 5702 5703 5703 5704 5704 5704 5704 5704 5703 5702 5702 5702 5702 5702 5701 5700 5699 5698 5698 5697 5696 5696
5674 5675 5676 5678 5679 5680 5681 5683 5684 5685 5686 5687 5688 5689 5690 5690 5691 5692 5692 5693 5693 5693 5693 5692 5692 5691 5691 5691 5691 5691 5690 5690 5689 5688 5688 5687 5686 5686